Simultaneous Nadir Overpasses (SNOs) Predictions

Prediction of SNOs between AQUA and NOAA-19 Satellite Orbit:

Table of predicted SNOs for the next 14.0 days since TLE Epoch: 9/12/2015
Index Date (AQUA) Time (AQUA) Lat,Lon (AQUA) SZA (AQUA ) Date (NOAA-19) Time (NOAA-19) Lat,Lon (NOAA-19) SZA (NOAA-19 ) Distance(km) Time Diff (sec)
1 09/13/2015 23:22:58 80.37, 155.54 78.25 09/13/2015 23:23:02 80.37, 155.54 78.25 0.45 4
2 09/16/2015 04:07:17 80.42, 83.90 79.17 09/16/2015 04:06:22 80.43, 83.80 79.21 2.08 55
3 09/16/2015 04:56:42 -80.37,-107.97 100.91 09/16/2015 04:57:21 -80.37,-108.02 100.92 0.90 39
4 09/18/2015 09:41:00 -80.40,-179.34 100.03 09/18/2015 09:40:39 -80.40,-179.30 100.03 0.76 21
5 09/18/2015 10:30:25 80.36, -11.24 79.91 09/18/2015 10:31:38 80.36, -11.31 79.89 1.44 73
6 09/20/2015 15:14:43 80.39, -82.67 80.80 09/20/2015 15:14:57 80.40, -82.77 80.81 1.93 14
7 09/22/2015 19:59:01 80.44,-154.16 81.71 09/22/2015 19:58:16 80.44,-154.25 81.74 1.84 45
8 09/22/2015 20:48:26 -80.38, 13.98 98.37 09/22/2015 20:49:13 -80.38, 14.05 98.40 1.56 47




NCC Satellite Simultaneous Nadir Overpasses (SNOs) Prediction Service
